EDDWEDHI

Guest
Details From EDDW - Bremen
To EDHI - Hamburg Finkenwerder
Flight Number -
Tags Routegen Generated
Created
Modified
Stats Distance 48 nm / 88 km
Max Altitude 100 ft / 30 m
Waypoints 5
Social Downloads 0
Likes 0
Share VATSIM

Download

Looking for another format? Having issues loading an existing format? Contact us
Advertisement - Login to hide

Notes

Departing runway 8 EDDW. Arriving runway 5 EDHI.

Route

EDDW +53.05_+008.93 +53.27_+009.33 +53.48_+009.73 EDHI

ID Type Via Altitude Latitude Longitude Leg Dist Tot Dist Heading (true) Name
O EDDW APT - 0 ft / 0 m 53.04726˚ 8.80485˚ - 0 nm - -
+53.05_+008.93 LATLON - 100 ft / 30 m 53.04991˚ 8.92515˚ 4 nm 4 nm 88° / 88° -
+53.27_+009.33 LATLON - 100 ft / 30 m 53.26674˚ 9.32567˚ 19 nm 23 nm 48° / 48° -
+53.48_+009.73 LATLON - 100 ft / 30 m 53.48357˚ 9.72619˚ 19 nm 43 nm 48° / 48° -
O EDHI APT - 0 ft / 0 m 53.52856˚ 9.82149˚ 4 nm 47 nm 52° / 52° -

Altitude Profile

Advertisement - Login to hide

EDDW

Details ICAO EDDW (BRE)
Name Bremen
Region Germany - Civil
Timezone Europe/Berlin (UTC+2.0)
Stats Elevation 14 ft / 4 m (AMSL)
Location 53.045715° 8.789003°
Runways 2
Magnetic Variation 2.465° E

METAR

EDDW 220620Z 09006KT 060V120 CAVOK 17/08 Q1014 NOSIG

Decode

TAF

TAF EDDW 220500Z 2206/2306 08006KT CAVOK BECMG 2207/2209 10011KT PROB30 TEMPO 2213/2218 -TSRA SCT050CB BECMG 2215/2218 07006KT

Decode

Departure Runways

ID Width Length Bearing (true) Bearing (mag) Surface Threshold Offset Overrun Length
05 75 ft / 23 m 2,298 ft / 700 m 51.18° 48.72° Asphalt 0 ft / 0 m 0 ft / 0 m
09 151 ft / 46 m 8,616 ft / 2,626 m 87.78° 85.32° Asphalt 945 ft / 288 m 0 ft / 0 m
23 75 ft / 23 m 2,298 ft / 700 m 231.19° 228.73° Asphalt 0 ft / 0 m 0 ft / 0 m
27 151 ft / 46 m 8,616 ft / 2,626 m 267.82° 265.36° Asphalt 984 ft / 300 m 0 ft / 0 m

EDHI

Details ICAO EDHI (XFW)
Name Hamburg Finkenwerder
Region Germany - Civil
Timezone Europe/Berlin (UTC+2.0)
Stats Elevation 21 ft / 6 m (AMSL)
Location 53.535910° 9.837071°
Runways 1
Magnetic Variation 2.799° E

METAR

EDHI 220620Z 10006KT 060V150 CAVOK 17/08 Q1016

Decode

TAF

Not found

Destination Runways

ID Width Length Bearing (true) Bearing (mag) Surface Threshold Offset Overrun Length
05 148 ft / 45 m 8,628 ft / 2,630 m 51.57° 48.77° Asphalt 341 ft / 104 m 341 ft / 104 m
23 148 ft / 45 m 8,628 ft / 2,630 m 231.59° 228.79° Asphalt 2,474 ft / 754 m 328 ft / 100 m

Approach Navaids

Runway Type Ident Frequency Range Bearing (true) Bearing (mag) Slope Elevation
05 Localiser IHFE 110.70 MHz 18 nm / 33 km 51.50° 48.70° - 15 ft / 5 m (AMSL)
05 Glidescope IHFE 110.70 MHz 10 nm / 19 km 51.58° 48.78° 3.10° 21 ft / 6 m (AMSL)
23 Localiser HFW 108.50 MHz 18 nm / 33 km 231.80° 229.00° - 16 ft / 5 m (AMSL)
23 Glidescope HFW 108.50 MHz 10 nm / 19 km 231.58° 228.78° 3.00° 21 ft / 6 m (AMSL)
23 DME HFW 108.50 MHz 18 nm / 33 km - - - 51 ft / 16 m (AMSL)

Popular Alternatives